QPF
0.00 0.00 0.00 0.00 0.00 0.01 0.01 0.02 0.02 0.03 0.02 0.03 0.04 0.05 0.06 0.06 0.05 0.06 0.05 0.07 0.11 0.15 0.16 0.16 0.22 0.27 0.27 0.28 0.26 0.22 0.17 0.14 0.13 0.07 0.04 0.02 0.01 0.01 0.00 0.00 0.00 0.00 0.01
0.00 0.01 0.00 0.00 0.00 0.01 0.02 0.04 0.05 0.05 0.04 0.06 0.09 0.10 0.10 0.10 0.10 0.08 0.08 0.10 0.14 0.17 0.18 0.21 0.26 0.26 0.25 0.25 0.27 0.24 0.19 0.16 0.16 0.11 0.06 0.02 0.01 0.01 0.00 0.00 0.00 0.01 0.01
0.01 0.01 0.01 0.01 0.01 0.01 0.02 0.02 0.03 0.05 0.09 0.12 0.13 0.13 0.15 0.15 0.14 0.14 0.15 0.16 0.19 0.21 0.27 0.30 0.31 0.28 0.26 0.28 0.31 0.29 0.26 0.21 0.17 0.12 0.10 0.07 0.03 0.01 0.00 0.01 0.01 0.01 0.02
0.01 0.01 0.01 0.01 0.02 0.03 0.03 0.02 0.03 0.06 0.10 0.14 0.15 0.17 0.20 0.21 0.24 0.27 0.23 0.23 0.23 0.25 0.26 0.27 0.29 0.31 0.30 0.27 0.26 0.23 0.20 0.17 0.13 0.11 0.09 0.09 0.07 0.06 0.03 0.01 0.02 0.04 0.03
0.00 0.00 0.01 0.01 0.02 0.02 0.02 0.03 0.05 0.06 0.09 0.13 0.15 0.19 0.20 0.23 0.32 0.33 0.33 0.33 0.33 0.32 0.30 0.29 0.30 0.28 0.27 0.24 0.20 0.16 0.14 0.12 0.10 0.08 0.06 0.06 0.07 0.07 0.06 0.03 0.03 0.04 0.05
0.00 0.00 0.01 0.01 0.02 0.02 0.03 0.04 0.04 0.05 0.07 0.09 0.12 0.16 0.17 0.23 0.27 0.28 0.34 0.37 0.40 0.39 0.38 0.40 0.37 0.34 0.30 0.23 0.18 0.13 0.11 0.09 0.06 0.05 0.05 0.05 0.05 0.07 0.08 0.05 0.04 0.04 0.04
0.00 0.00 0.00 0.01 0.01 0.01 0.02 0.04 0.05 0.06 0.06 0.07 0.09 0.12 0.16 0.19 0.21 0.24 0.32 0.37 0.39 0.36 0.35 0.37 0.33 0.28 0.24 0.18 0.14 0.11 0.08 0.06 0.04 0.03 0.03 0.04 0.04 0.06 0.07 0.06 0.04 0.02 0.02
0.00 0.00 0.00 0.00 0.01 0.01 0.02 0.03 0.05 0.06 0.06 0.08 0.09 0.11 0.17 0.21 0.23 0.26 0.30 0.33 0.35 0.36 0.34 0.33 0.30 0.26 0.20 0.15 0.11 0.09 0.06 0.04 0.02 0.02 0.03 0.04 0.04 0.05 0.06 0.06 0.05 0.02 0.01
0.00 0.00 0.00 0.01 0.01 0.01 0.02 0.04 0.05 0.05 0.05 0.07 0.09 0.11 0.13 0.16 0.20 0.23 0.28 0.31 0.33 0.33 0.31 0.27 0.24 0.22 0.17 0.11 0.08 0.05 0.03 0.02 0.02 0.02 0.02 0.02 0.02 0.02 0.03 0.03 0.04 0.04 0.02
0.00 0.00 0.01 0.01 0.01 0.01 0.02 0.04 0.04 0.05 0.07 0.08 0.12 0.14 0.16 0.19 0.21 0.22 0.23 0.26 0.28 0.27 0.26 0.23 0.21 0.18 0.13 0.09 0.06 0.04 0.03 0.02 0.02 0.01 0.01 0.01 0.01 0.01 0.01 0.01 0.02 0.04 0.04
0.00 0.01 0.01 0.02 0.02 0.02 0.03 0.04 0.05 0.06 0.09 0.11 0.13 0.16 0.19 0.22 0.23 0.24 0.24 0.23 0.22 0.20 0.18 0.16 0.13 0.10 0.08 0.05 0.04 0.03 0.01 0.01 0.01 0.01 0.01 0.01 0.01 0.01 0.00 0.00 0.01 0.02 0.03
0.00 0.01 0.02 0.03 0.02 0.02 0.03 0.05 0.07 0.10 0.13 0.16 0.18 0.18 0.17 0.18 0.18 0.20 0.23 0.22 0.17 0.14 0.13 0.11 0.08 0.06 0.04 0.03 0.02 0.01 0.01 0.01 0.01 0.01 0.01 0.00 0.00 0.01 0.01 0.00 0.01 0.01 0.01
0.01 0.02 0.03 0.03 0.04 0.04 0.06 0.07 0.09 0.12 0.17 0.19 0.21 0.23 0.20 0.19 0.18 0.17 0.19 0.19 0.14 0.10 0.09 0.07 0.04 0.03 0.02 0.01 0.01 0.00 0.00 0.00 0.00 0.00 0.00 0.00 0.00 0.00 0.00 0.00 0.00 0.00 0.00
0.02 0.03 0.04 0.05 0.07 0.11 0.14 0.14 0.15 0.17 0.21 0.22 0.20 0.18 0.15 0.14 0.14 0.14 0.14 0.14 0.11 0.08 0.06 0.04 0.02 0.01 0.01 0.00 0.00 0.00 0.00 0.00 0.00 0.00 0.00 0.00 0.00 0.00 0.00 0.00 0.00 0.00 0.01
0.03 0.04 0.06 0.08 0.12 0.15 0.16 0.17 0.20 0.21 0.22 0.22 0.22 0.19 0.16 0.13 0.12 0.12 0.14 0.12 0.10 0.07 0.04 0.02 0.01 0.01 0.00 0.00 0.00 0.00 0.00 0.00 0.00 0.00 0.00 0.00 0.00 0.00 0.00 0.00 0.00 0.00 0.00
0.04 0.06 0.07 0.09 0.13 0.17 0.19 0.13 0.12 0.15 0.16 0.16 0.18 0.19 0.19 0.16 0.15 0.14 0.13 0.10 0.08 0.06 0.04 0.02 0.00 0.00 0.00 0.00 0.00 0.00 0.00 0.00 0.00 0.00 0.00 0.00 0.00 0.00 0.00 0.00 0.00 0.00 0.00
0.07 0.08 0.08 0.08 0.08 0.11 0.16 0.14 0.08 0.08 0.11 0.11 0.12 0.16 0.19 0.18 0.16 0.14 0.11 0.09 0.07 0.04 0.02 0.01 0.00 0.00 0.00 0.00 0.00 0.00 0.00 0.00 0.00 0.00 0.00 0.00 0.00 0.00 0.00 0.00 0.00 0.00 0.00
0.05 0.07 0.07 0.05 0.04 0.04 0.05 0.08 0.07 0.06 0.08 0.11 0.12 0.14 0.13 0.12 0.11 0.09 0.08 0.08 0.07 0.04 0.01 0.01 0.00 0.00 0.00 0.00 0.00 0.00 0.00 0.00 0.00 0.00 0.00 0.00 0.00 0.00 0.00 0.00 0.00 0.00 0.00
0.02 0.04 0.04 0.03 0.02 0.02 0.02 0.03 0.04 0.05 0.09 0.12 0.14 0.16 0.13 0.10 0.09 0.07 0.06 0.05 0.04 0.02 0.01 0.00 0.00 0.00 0.00 0.00 0.00 0.00 0.00 0.00 0.00 0.00 0.00 0.00 0.00 0.00 0.00 0.00 0.00 0.01 0.01
0.01 0.01 0.01 0.00 0.01 0.01 0.01 0.02 0.03 0.05 0.08 0.09 0.11 0.11 0.10 0.08 0.07 0.07 0.04 0.03 0.02 0.01 0.01 0.00 0.00 0.00 0.00 0.00 0.00 0.00 0.00 0.00 0.00 0.00 0.00 0.00 0.00 0.00 0.00 0.00 0.00 0.00 0.01
0.00 0.00 0.00 0.01 0.00 0.00 0.01 0.02 0.03 0.05 0.07 0.06 0.06 0.06 0.05 0.04 0.04 0.04 0.04 0.03 0.02 0.01 0.01 0.00 0.00 0.00 0.00 0.00 0.00 0.00 0.00 0.00 0.00 0.00 0.00 0.00 0.00 0.00 0.00 0.00 0.00 0.00 0.00
0.00 0.00 0.00 0.00 0.00 0.00 0.01 0.01 0.02 0.04 0.05 0.04 0.05 0.05 0.04 0.03 0.02 0.03 0.03 0.03 0.02 0.01 0.01 0.00 0.00 0.00 0.00 0.00 0.00 0.00 0.00 0.00 0.00 0.00 0.00 0.00 0.00 0.00 0.00 0.00 0.00 0.00 0.00
0.00 0.00 0.00 0.00 0.00 0.00 0.01 0.02 0.03 0.03 0.03 0.04 0.05 0.05 0.03 0.02 0.02 0.02 0.02 0.02 0.02 0.01 0.01 0.00 0.00 0.00 0.00 0.00 0.00 0.00 0.00 0.00 0.00 0.00 0.00 0.00 0.00 0.00 0.00 0.00 0.00 0.00 0.00
0.00 0.00 0.00 0.00 0.00 0.00 0.00 0.02 0.03 0.03 0.04 0.04 0.05 0.04 0.03 0.02 0.02 0.02 0.01 0.01 0.01 0.01 0.00 0.00 0.00 0.00 0.00 0.00 0.00 0.00 0.00 0.00 0.00 0.00 0.00 0.00 0.00 0.00 0.00 0.00 0.00 0.00 0.00
0.00 0.00 0.00 0.00 0.00 0.00 0.00 0.01 0.01 0.02 0.04 0.05 0.04 0.04 0.03 0.03 0.02 0.01 0.01 0.01 0.01 0.00 0.00 0.00 0.00 0.00 0.00 0.00 0.00 0.00 0.00 0.00 0.00 0.00 0.00 0.00 0.00 0.00 0.00 0.00 0.00 0.00 0.00
0.00 0.01 0.00 0.00 0.00 0.00 0.00 0.00 0.01 0.02 0.04 0.05 0.04 0.03 0.02 0.02 0.01 0.01 0.00 0.00 0.00 0.00 0.00 0.00 0.00 0.00 0.00 0.00 0.00 0.00 0.00 0.00 0.00 0.00 0.00 0.00 0.00 0.00 0.00 0.00 0.00 0.00 0.00
MSLP
1008.85 1008.80 1008.79 1008.82 1008.90 1009.06 1009.29 1009.59 1009.93 1010.30 1010.64 1010.94 1011.17 1011.32 1011.39 1011.42 1011.41 1011.40 1011.40 1011.44 1011.52 1011.64 1011.79 1011.97 1012.18 1012.40 1012.65 1012.91 1013.16 1013.38 1013.56 1013.65 1013.63 1013.50 1013.25 1012.90 1012.48 1012.05 1011.64 1011.29 1011.04 1010.87 1010.80
1009.23 1009.15 1009.09 1009.05 1009.05 1009.11 1009.23 1009.43 1009.69 1009.99 1010.28 1010.55 1010.76 1010.91 1010.99 1011.03 1011.03 1011.04 1011.06 1011.12 1011.21 1011.34 1011.51 1011.70 1011.92 1012.15 1012.39 1012.65 1012.90 1013.12 1013.30 1013.41 1013.41 1013.31 1013.10 1012.79 1012.42 1012.01 1011.61 1011.26 1010.99 1010.80 1010.68
1009.63 1009.56 1009.47 1009.38 1009.30 1009.26 1009.28 1009.37 1009.52 1009.71 1009.92 1010.13 1010.30 1010.43 1010.52 1010.57 1010.60 1010.64 1010.70 1010.79 1010.92 1011.08 1011.26 1011.47 1011.69 1011.91 1012.14 1012.37 1012.59 1012.80 1012.97 1013.08 1013.11 1013.06 1012.90 1012.66 1012.36 1012.01 1011.66 1011.34 1011.06 1010.85 1010.70
1009.99 1009.94 1009.85 1009.73 1009.60 1009.48 1009.39 1009.35 1009.38 1009.45 1009.56 1009.68 1009.79 1009.89 1009.96 1010.02 1010.09 1010.16 1010.27 1010.41 1010.59 1010.79 1011.01 1011.23 1011.45 1011.66 1011.86 1012.06 1012.24 1012.42 1012.58 1012.70 1012.76 1012.76 1012.69 1012.54 1012.32 1012.06 1011.78 1011.50 1011.24 1011.01 1010.82
1010.25 1010.24 1010.18 1010.05 1009.88 1009.69 1009.51 1009.36 1009.25 1009.20 1009.18 1009.20 1009.24 1009.28 1009.33 1009.39 1009.48 1009.60 1009.76 1009.96 1010.19 1010.44 1010.70 1010.94 1011.17 1011.37 1011.55 1011.71 1011.87 1012.02 1012.16 1012.29 1012.40 1012.46 1012.47 1012.42 1012.32 1012.16 1011.96 1011.73 1011.49 1011.25 1011.02
1010.38 1010.42 1010.39 1010.28 1010.10 1009.87 1009.61 1009.36 1009.14 1008.96 1008.82 1008.73 1008.67 1008.65 1008.65 1008.70 1008.80 1008.95 1009.15 1009.40 1009.69 1010.00 1010.30 1010.57 1010.82 1011.02 1011.19 1011.34 1011.48 1011.61 1011.76 1011.91 1012.06 1012.19 1012.28 1012.34 1012.33 1012.27 1012.15 1011.97 1011.76 1011.51 1011.24
1010.39 1010.47 1010.49 1010.41 1010.24 1009.99 1009.68 1009.36 1009.04 1008.75 1008.50 1008.30 1008.15 1008.05 1008.01 1008.03 1008.12 1008.28 1008.51 1008.80 1009.13 1009.48 1009.82 1010.13 1010.40 1010.62 1010.80 1010.95 1011.09 1011.23 1011.39 1011.57 1011.76 1011.96 1012.13 1012.27 1012.35 1012.37 1012.31 1012.18 1011.98 1011.72 1011.42
1010.28 1010.41 1010.47 1010.43 1010.28 1010.04 1009.72 1009.36 1008.98 1008.62 1008.28 1007.99 1007.76 1007.59 1007.49 1007.48 1007.54 1007.70 1007.93 1008.24 1008.58 1008.96 1009.33 1009.67 1009.96 1010.21 1010.41 1010.59 1010.75 1010.92 1011.10 1011.32 1011.55 1011.79 1012.02 1012.22 1012.36 1012.44 1012.42 1012.32 1012.13 1011.85 1011.52
1010.10 1010.25 1010.35 1010.36 1010.26 1010.05 1009.75 1009.38 1008.98 1008.58 1008.19 1007.85 1007.56 1007.34 1007.20 1007.14 1007.17 1007.31 1007.52 1007.82 1008.16 1008.54 1008.92 1009.27 1009.59 1009.87 1010.11 1010.31 1010.51 1010.71 1010.93 1011.17 1011.43 1011.71 1011.97 1012.20 1012.37 1012.47 1012.47 1012.38 1012.18 1011.89 1011.53
1009.87 1010.04 1010.18 1010.23 1010.18 1010.02 1009.76 1009.43 1009.05 1008.65 1008.26 1007.91 1007.60 1007.35 1007.18 1007.10 1007.11 1007.21 1007.40 1007.66 1007.98 1008.34 1008.70 1009.06 1009.39 1009.68 1009.95 1010.19 1010.42 1010.66 1010.91 1011.17 1011.45 1011.73 1012.00 1012.23 1012.40 1012.49 1012.48 1012.38 1012.17 1011.87 1011.50
1009.64 1009.82 1009.98 1010.07 1010.07 1009.97 1009.77 1009.50 1009.17 1008.83 1008.48 1008.16 1007.88 1007.65 1007.49 1007.40 1007.39 1007.47 1007.62 1007.85 1008.13 1008.44 1008.77 1009.11 1009.43 1009.73 1010.01 1010.27 1010.53 1010.79 1011.06 1011.34 1011.62 1011.89 1012.14 1012.34 1012.47 1012.54 1012.50 1012.38 1012.16 1011.85 1011.48
1009.42 1009.60 1009.78 1009.90 1009.94 1009.90 1009.77 1009.58 1009.34 1009.07 1008.81 1008.56 1008.35 1008.17 1008.05 1008.00 1008.00 1008.07 1008.20 1008.38 1008.61 1008.87 1009.15 1009.44 1009.73 1010.01 1010.29 1010.57 1010.84 1011.11 1011.39 1011.67 1011.93 1012.18 1012.39 1012.55 1012.64 1012.66 1012.60 1012.44 1012.21 1011.90 1011.53
1009.23 1009.40 1009.58 1009.71 1009.79 1009.80 1009.75 1009.64 1009.49 1009.33 1009.17 1009.03 1008.92 1008.84 1008.79 1008.79 1008.83 1008.91 1009.03 1009.18 1009.36 1009.57 1009.79 1010.02 1010.26 1010.51 1010.77 1011.03 1011.30 1011.57 1011.85 1012.11 1012.36 1012.58 1012.75 1012.87 1012.92 1012.89 1012.79 1012.62 1012.37 1012.07 1011.71
1009.05 1009.21 1009.38 1009.53 1009.63 1009.68 1009.69 1009.66 1009.61 1009.55 1009.51 1009.48 1009.49 1009.51 1009.57 1009.65 1009.75 1009.86 1009.99 1010.13 1010.27 1010.42 1010.59 1010.76 1010.94 1011.14 1011.35 1011.59 1011.84 1012.10 1012.36 1012.62 1012.85 1013.04 1013.18 1013.27 1013.28 1013.23 1013.10 1012.91 1012.66 1012.36 1012.01
1008.86 1009.01 1009.17 1009.32 1009.43 1009.52 1009.57 1009.61 1009.64 1009.69 1009.75 1009.84 1009.95 1010.09 1010.25 1010.42 1010.59 1010.76 1010.91 1011.05 1011.18 1011.29 1011.40 1011.51 1011.64 1011.78 1011.95 1012.15 1012.37 1012.61 1012.86 1013.10 1013.32 1013.50 1013.63 1013.69 1013.69 1013.62 1013.49 1013.29 1013.04 1012.75 1012.41
1008.64 1008.78 1008.93 1009.07 1009.20 1009.31 1009.40 1009.49 1009.59 1009.71 1009.86 1010.04 1010.25 1010.49 1010.74 1011.00 1011.24 1011.46 1011.65 1011.81 1011.93 1012.03 1012.11 1012.18 1012.25 1012.35 1012.47 1012.63 1012.82 1013.03 1013.27 1013.50 1013.71 1013.89 1014.02 1014.09 1014.09 1014.02 1013.89 1013.70 1013.45 1013.17 1012.84
1008.34 1008.48 1008.63 1008.78 1008.92 1009.05 1009.17 1009.30 1009.45 1009.62 1009.83 1010.08 1010.36 1010.66 1010.99 1011.31 1011.61 1011.89 1012.12 1012.31 1012.45 1012.55 1012.61 1012.66 1012.71 1012.77 1012.86 1012.98 1013.14 1013.34 1013.56 1013.79 1014.00 1014.19 1014.33 1014.41 1014.42 1014.36 1014.24 1014.06 1013.82 1013.53 1013.20
1007.96 1008.11 1008.26 1008.43 1008.58 1008.73 1008.89 1009.05 1009.23 1009.44 1009.68 1009.96 1010.28 1010.62 1010.98 1011.34 1011.69 1012.01 1012.29 1012.52 1012.69 1012.81 1012.89 1012.94 1012.99 1013.04 1013.11 1013.22 1013.36 1013.54 1013.75 1013.97 1014.18 1014.37 1014.52 1014.61 1014.64 1014.60 1014.49 1014.31 1014.08 1013.78 1013.44
1007.49 1007.64 1007.82 1008.00 1008.19 1008.38 1008.56 1008.76 1008.96 1009.19 1009.45 1009.74 1010.06 1010.41 1010.78 1011.16 1011.54 1011.89 1012.20 1012.47 1012.69 1012.86 1012.98 1013.07 1013.14 1013.21 1013.29 1013.39 1013.53 1013.69 1013.89 1014.09 1014.29 1014.48 1014.63 1014.72 1014.76 1014.73 1014.62 1014.44 1014.20 1013.89 1013.53
1006.94 1007.11 1007.31 1007.53 1007.75 1007.98 1008.20 1008.43 1008.66 1008.91 1009.17 1009.46 1009.77 1010.11 1010.47 1010.85 1011.23 1011.60 1011.95 1012.26 1012.54 1012.77 1012.96 1013.11 1013.23 1013.35 1013.46 1013.58 1013.72 1013.87 1014.04 1014.23 1014.40 1014.57 1014.69 1014.78 1014.80 1014.76 1014.65 1014.46 1014.21 1013.89 1013.50
1006.37 1006.54 1006.76 1007.00 1007.27 1007.53 1007.80 1008.07 1008.34 1008.60 1008.87 1009.16 1009.46 1009.78 1010.12 1010.48 1010.86 1011.24 1011.62 1011.98 1012.32 1012.63 1012.90 1013.13 1013.34 1013.52 1013.68 1013.83 1013.98 1014.13 1014.28 1014.42 1014.56 1014.68 1014.77 1014.82 1014.81 1014.75 1014.62 1014.42 1014.15 1013.81 1013.42
1005.82 1005.98 1006.19 1006.45 1006.74 1007.05 1007.37 1007.68 1007.98 1008.28 1008.56 1008.85 1009.15 1009.45 1009.78 1010.13 1010.50 1010.89 1011.29 1011.70 1012.10 1012.49 1012.86 1013.19 1013.49 1013.75 1013.98 1014.17 1014.34 1014.48 1014.60 1014.70 1014.79 1014.85 1014.88 1014.87 1014.83 1014.73 1014.57 1014.36 1014.08 1013.74 1013.34
1005.34 1005.46 1005.65 1005.90 1006.20 1006.53 1006.88 1007.23 1007.57 1007.91 1008.23 1008.54 1008.84 1009.15 1009.47 1009.81 1010.18 1010.57 1011.00 1011.45 1011.92 1012.38 1012.84 1013.28 1013.67 1014.02 1014.32 1014.56 1014.75 1014.89 1014.98 1015.03 1015.05 1015.04 1015.01 1014.94 1014.85 1014.71 1014.54 1014.32 1014.04 1013.71 1013.33
1004.97 1005.02 1005.15 1005.36 1005.64 1005.97 1006.33 1006.71 1007.10 1007.48 1007.84 1008.19 1008.52 1008.85 1009.18 1009.52 1009.89 1010.30 1010.75 1011.23 1011.75 1012.28 1012.82 1013.34 1013.83 1014.26 1014.62 1014.91 1015.13 1015.26 1015.33 1015.33 1015.29 1015.22 1015.12 1015.00 1014.86 1014.70 1014.51 1014.30 1014.04 1013.74 1013.40
1004.72 1004.67 1004.71 1004.85 1005.07 1005.37 1005.72 1006.12 1006.54 1006.97 1007.38 1007.78 1008.16 1008.52 1008.88 1009.24 1009.62 1010.03 1010.50 1011.00 1011.55 1012.14 1012.74 1013.32 1013.88 1014.38 1014.80 1015.13 1015.36 1015.50 1015.54 1015.51 1015.42 1015.29 1015.14 1014.97 1014.81 1014.64 1014.46 1014.27 1014.06 1013.82 1013.54
1004.55 1004.38 1004.31 1004.34 1004.48 1004.72 1005.05 1005.45 1005.89 1006.36 1006.83 1007.28 1007.72 1008.13 1008.52 1008.91 1009.31 1009.73 1010.20 1010.72 1011.29 1011.89 1012.52 1013.15 1013.75 1014.30 1014.76 1015.12 1015.36 1015.50 1015.53 1015.47 1015.35 1015.18 1014.99 1014.81 1014.64 1014.48 1014.34 1014.20 1014.05 1013.89 1013.68
Thickness
5805 5806 5805 5805 5803 5800 5798 5795 5791 5789 5785 5783 5781 5776 5775 5774 5774 5773 5770 5766 5763 5761 5758 5757 5756 5753 5751 5749 5748 5745 5743 5741 5742 5741 5744 5751 5756 5757 5755 5756 5755 5756 5754
5790 5791 5792 5792 5792 5790 5789 5787 5784 5783 5781 5779 5777 5775 5772 5771 5770 5769 5765 5761 5758 5755 5754 5751 5749 5747 5744 5743 5741 5738 5736 5736 5737 5733 5733 5737 5744 5748 5752 5750 5749 5748 5748
5777 5778 5779 5779 5780 5779 5778 5778 5776 5776 5774 5772 5770 5768 5764 5762 5761 5760 5758 5756 5753 5751 5748 5746 5743 5741 5738 5736 5734 5733 5730 5728 5730 5730 5726 5724 5728 5734 5742 5742 5741 5739 5738
5766 5766 5767 5767 5768 5769 5769 5768 5766 5766 5766 5764 5762 5759 5756 5756 5757 5755 5753 5751 5748 5746 5743 5740 5737 5735 5732 5731 5729 5729 5727 5723 5722 5724 5724 5722 5722 5718 5725 5733 5735 5732 5730
5756 5755 5755 5756 5758 5760 5760 5759 5757 5757 5757 5756 5754 5751 5751 5752 5752 5749 5746 5743 5742 5740 5736 5732 5730 5729 5726 5725 5723 5722 5721 5720 5719 5719 5718 5717 5717 5715 5712 5716 5721 5724 5725
5748 5747 5747 5747 5747 5749 5749 5749 5747 5746 5747 5746 5745 5743 5742 5741 5740 5739 5737 5736 5735 5732 5729 5727 5723 5722 5720 5718 5716 5717 5715 5714 5713 5713 5714 5712 5709 5708 5706 5707 5710 5713 5717
5738 5737 5737 5736 5736 5736 5736 5737 5735 5734 5734 5734 5734 5734 5733 5731 5730 5730 5729 5727 5725 5723 5721 5719 5714 5714 5713 5711 5710 5709 5708 5707 5706 5707 5707 5706 5705 5704 5701 5700 5703 5705 5710
5731 5729 5728 5727 5725 5725 5725 5724 5723 5722 5722 5722 5722 5722 5722 5721 5721 5721 5720 5718 5716 5715 5713 5709 5707 5707 5705 5703 5702 5701 5701 5700 5699 5700 5698 5698 5698 5697 5696 5694 5694 5696 5702
5724 5723 5722 5720 5717 5715 5714 5713 5711 5710 5710 5709 5709 5709 5708 5708 5708 5709 5709 5708 5706 5705 5704 5700 5699 5697 5695 5693 5693 5693 5692 5690 5691 5691 5690 5690 5690 5690 5689 5689 5688 5685 5687
5717 5716 5715 5712 5710 5708 5705 5704 5701 5699 5699 5698 5696 5695 5694 5694 5694 5694 5694 5693 5693 5692 5691 5689 5689 5686 5684 5684 5683 5682 5681 5680 5681 5680 5679 5679 5682 5681 5681 5681 5680 5679 5677
5711 5709 5707 5705 5702 5699 5696 5692 5690 5688 5685 5683 5681 5679 5677 5677 5678 5677 5677 5677 5677 5677 5677 5677 5676 5676 5674 5673 5673 5673 5671 5671 5670 5670 5669 5668 5668 5670 5672 5672 5672 5671 5670
5705 5702 5699 5696 5693 5689 5686 5682 5679 5675 5672 5669 5666 5663 5661 5659 5660 5660 5660 5660 5660 5661 5663 5663 5663 5663 5661 5661 5661 5662 5661 5660 5659 5658 5658 5658 5659 5657 5659 5660 5661 5661 5660
5696 5693 5689 5686 5682 5679 5675 5672 5667 5663 5659 5656 5652 5649 5646 5644 5644 5644 5643 5643 5643 5645 5647 5649 5649 5649 5648 5649 5649 5650 5650 5649 5648 5647 5646 5646 5646 5645 5647 5647 5649 5651 5653
5687 5683 5679 5676 5672 5668 5664 5661 5657 5653 5648 5645 5641 5636 5633 5631 5630 5629 5629 5628 5628 5630 5632 5634 5636 5637 5638 5638 5638 5639 5639 5638 5637 5636 5635 5635 5634 5633 5634 5636 5636 5638 5640
5680 5676 5672 5668 5664 5660 5656 5651 5647 5643 5639 5635 5631 5626 5622 5620 5618 5617 5616 5616 5617 5619 5620 5622 5624 5626 5628 5629 5629 5629 5629 5627 5626 5625 5625 5623 5620 5617 5619 5622 5623 5625 5627
5675 5671 5667 5662 5658 5654 5649 5645 5640 5635 5631 5627 5623 5619 5615 5612 5609 5607 5606 5606 5607 5608 5610 5611 5613 5616 5617 5614 5616 5619 5619 5618 5617 5616 5616 5615 5613 5610 5609 5607 5607 5608 5611
5670 5666 5662 5658 5653 5649 5644 5639 5635 5631 5626 5622 5618 5614 5611 5607 5603 5601 5599 5598 5599 5600 5601 5602 5604 5604 5602 5602 5605 5607 5611 5610 5608 5607 5607 5608 5605 5602 5603 5603 5601 5600 5597
5666 5662 5658 5654 5650 5646 5641 5636 5632 5627 5623 5619 5615 5612 5608 5604 5600 5598 5595 5593 5593 5593 5594 5595 5596 5596 5593 5593 5595 5598 5602 5602 5600 5599 5597 5596 5594 5589 5587 5593 5594 5593 5592
5662 5659 5655 5652 5646 5642 5638 5633 5628 5625 5621 5617 5613 5610 5606 5602 5598 5595 5593 5591 5590 5589 5589 5590 5590 5589 5586 5584 5587 5591 5596 5595 5593 5590 5586 5586 5583 5575 5574 5581 5581 5580 5579
5658 5654 5651 5647 5642 5638 5634 5629 5626 5622 5619 5616 5612 5608 5604 5600 5597 5593 5591 5589 5588 5587 5587 5585 5585 5584 5582 5578 5581 5585 5593 5589 5588 5583 5579 5571 5569 5565 5564 5569 5568 5566 5564
5654 5650 5646 5642 5638 5635 5631 5626 5624 5621 5618 5615 5610 5606 5602 5598 5595 5591 5588 5586 5585 5584 5583 5581 5580 5578 5576 5574 5575 5578 5585 5585 5583 5581 5577 5568 5559 5557 5555 5554 5554 5549 5547
5651 5646 5641 5637 5635 5631 5627 5623 5621 5620 5617 5613 5608 5604 5600 5598 5595 5590 5587 5585 5583 5580 5579 5578 5577 5575 5573 5571 5569 5569 5570 5571 5574 5572 5569 5561 5553 5549 5546 5546 5541 5539 5541
5648 5644 5639 5634 5631 5628 5624 5621 5620 5618 5614 5610 5606 5602 5599 5596 5594 5590 5586 5584 5582 5583 5582 5579 5578 5576 5573 5566 5562 5562 5562 5562 5566 5563 5554 5551 5547 5545 5544 5538 5536 5535 5537
5645 5641 5636 5632 5629 5626 5623 5621 5619 5615 5611 5607 5604 5600 5597 5595 5592 5590 5588 5587 5585 5584 5582 5581 5579 5576 5572 5571 5567 5565 5561 5557 5560 5559 5552 5546 5544 5542 5538 5537 5535 5532 5526
5641 5638 5634 5631 5628 5625 5621 5620 5617 5613 5609 5606 5602 5600 5597 5595 5591 5589 5588 5587 5586 5585 5582 5581 5579 5576 5573 5568 5562 5564 5563 5562 5557 5554 5555 5553 5549 5546 5541 5537 5531 5526 5520
5635 5632 5631 5629 5627 5624 5620 5618 5616 5612 5608 5604 5601 5599 5598 5595 5592 5588 5584 5575 5578 5573 5571 5572 5574 5571 5566 5558 5555 5551 5548 5546 5544 5547 5552 5549 5545 5541 5537 5532 5527 5521 5514